Location: College Park
(38.9810°N, 76.9370°W)
Time: 01:12:16
(UTC-05:00)

Envisat - Visible Passes

Search period start: 17 February 2019 00:00
Search period end: 27 February 2019 00:00
Orbit: 764 x 766 km, 98.2° (Epoch: 16 February)

Date Brightness Start Highest point End Pass type
(mag) Time Alt. Az. Time Alt. Az. Time Alt. Az.
17 Feb 6.7 06:14:02 10° ENE 06:15:14 11° E 06:16:25 10° ESE visible
17 Feb 3.3 19:02:55 10° S 19:07:58 68° WSW 19:13:03 10° NNW visible
18 Feb 3.1 18:26:22 10° SSE 18:31:16 53° ENE 18:36:13 10° N visible
18 Feb 5.8 20:07:26 10° SW 20:10:36 17° W 20:13:47 10° NW visible
19 Feb 4.5 19:28:54 10° SSW 19:33:34 37° W 19:38:17 10° NNW visible
20 Feb 3.0 18:51:40 10° SSE 18:56:45 86° WSW 19:01:52 10° NNW visible
21 Feb 3.4 18:15:23 10° SE 18:20:07 42° ENE 18:24:53 10° N visible
21 Feb 5.5 19:55:29 10° SW 19:59:17 21° W 20:03:06 10° NW visible
22 Feb 4.0 19:17:27 10° S 19:22:20 48° W 19:27:14 10° NNW visible
23 Feb 2.9 18:40:30 10° SSE 18:45:33 75° ENE 18:50:39 10° N visible
23 Feb 6.2 20:23:30 10° WSW 20:25:06 11° W 20:26:41 10° WNW visible
24 Feb 5.1 19:43:45 10° SSW 19:47:59 27° W 19:52:16 10° NW visible
25 Feb 6.6 06:16:26 10° ENE 06:18:24 12° E 06:20:21 10° ESE visible
25 Feb 3.5 19:06:05 10° S 19:11:05 61° WSW 19:16:08 10° NNW visible
26 Feb 3.0 18:29:24 10° SSE 18:34:22 59° ENE 18:39:22 10° N visible
26 Feb 6.0 20:10:55 10° SW 20:13:45 15° W 20:16:36 10° WNW visible
